Regional Weather Roundup
Issued by NWS Newport/Morehead, NC

Current Version | Previous Version | Text Only | Print | Product List | Glossary On
Versions: 1 2 3 4 5 6 7 8 9 10 11 12 13 14 15 16 17 18 19 20 21 22 23 24 25 26 27 28 29 30 31 32 33 34 35 36 37 38 39 40 41 42 43 44 45 46 47 48 49 50
000
ASUS42 KMHX 211022
RWRMHX
WEATHER ROUNDUP FOR EASTERN NORTH CAROLINA
NATIONAL WEATHER SERVICE NEWPORT/MOREHEAD CITY NC
500 AM EST FRI NOV 21 2014

NOTE: "FAIR" INDICATES FEW OR NO CLOUDS BELOW 12,000 FEET
WITH NO SIGNIFICANT WEATHER AND/OR OBSTRUCTIONS TO VISIBILITY

NCZ015>017-031-032-045>047-102-103-211100-
NORTH COAST

CITY           SKY/WX    TMP DP  RH WIND       PRES   REMARKS
EDENTON          N/A     38  27  65 CALM      30.24R
ELIZABETH CITY CLEAR     42  23  46 NW13G21   30.22R
KITTY HAWK     SUNNY     43  27  53 NW8       30.20R
MANTEO         CLEAR     44  30  58 N8        30.22R

$$

NCZ045>047-081-094-103-104-211100-
CENTRAL COAST

CITY           SKY/WX    TMP DP  RH WIND       PRES   REMARKS
FRISCO         CLEAR     47  33  58 NW12G21   30.20R
SWANQUARTER      N/A     39 N/A N/A NW5       30.21R

$$

NCZ095-097-098-100-101-211100-
SOUTHERN COAST

CITY           SKY/WX    TMP DP  RH WIND       PRES   REMARKS
BEAUFORT       CLEAR     45  36  70 NW9       30.23R
CEDAR ISLAND     N/A     48 N/A N/A NW10G17   30.27R
JACKSONVILLE   CLEAR     39  34  82 W3        30.24R
PINEY ISLAND   SUNNY     47  35  63 NW6       30.22R
WILMINGTON     PTCLDY    41  36  82 W5        30.24R


$$

NCZ011>013-027>030-043-044-078>080-089-090>093-098-211100-
COASTAL PLAIN

CITY           SKY/WX    TMP DP  RH WIND       PRES   REMARKS
AHOSKIE        CLEAR     34  21  58 CALM      30.25R
CLINTON        CLEAR     35  33  94 CALM      30.26R
ELIZABETHTOWN  CLEAR     40  32  74 CALM      30.25R
GOLDSBORO      CLEAR     34  34  97 CALM      30.25R
GREENVILLE     CLEAR     32  30  93 CALM      30.27R
HAVELOCK       CLEAR     42  33  70 NW7       30.24R
KENANSVILLE    CLEAR     35  32  87 NW3       30.26R
KINSTON        CLEAR     33  31  92 CALM      30.26R
NEW BERN       CLEAR     41  33  73 NW6       30.25R
RICHLANDS      CLEAR     32  27  80 CALM      30.26R
ROCKY MOUNT    CLEAR     37  24  59 NW5       30.25R
WASHINGTON     CLEAR     31  28  90 CALM      30.26R
WHITEVILLE     MOCLDY    43  36  75 CALM      30.24S

$$

AMZ130-135-150-152-154-156-158-170-250-252-270-ANZ085-086-088-633-658-670-211100-
MARINE OBSERVATIONS

STATION/POSITION TIME  TEMP    WIND        PRES    WAVE   SWELL
                       AIR SEA DIR/SP/G            HT/PER HT/PER
                 (UTC) (F)     (DEG/KT/KT) (MB)    (FT/S) (FT/S)
CHESAPEAKE LIGHT 1000   42      10/ 16/ 19 1023.9
64 E VA BEACH    1000   49 61  350/ 17/ 21 1021.0    4/ 5   2/14
DUCK             1000   44 55  320/ 13/ 17 1021.7
2 E DUCK         1000      56                N/A     2/ 3
10 NE DUCK       0900      58                N/A     3/ 4
OREGON INLET     1000   43 47  290/  7/  9 1022.8
13E OREGON INLT  1000      63                N/A     4/ 7
HATTERAS CG      1000   50 53  320/ 19/ 22 1023.1
DIAMOND BUOY     1000   54     310/ 21/ 27 1022.1    6/ 8   3/ 8
17 S OCRACOKE    NOT AVBL
CAPE LOOKOUT     1000   49     310/ 11/ 14 1023.3
BEAUFORT LAB     1000   46 53  330/  4/  8 1022.8
30 SE NEW RIVER  1000   56 68  310/ 19/ 25 1022.6    6/ 7
5 SE WRIGHTSVLE  1000   49 60  300/ 16/ 17 1023.9
225 S CAPE HAT   0854   69 73  320/ 16/ 19 1022.9    6/ 7
41 SE CHARLESTON 1000   62 72  320/ 16/ 19 1023.7    4/ 5   2/ 8

$$



USA.gov is the U.S. government's official web portal to all federal, state and local government web resources and services.